Waarnemingen

Advertentie
Mijn weer
Kvikkjokk Arrenjarka A, Zweden (2119): temperatuur & dauwpunt: 14.09.2020 18:00:00 - 20.09.2020 18:00:00 (CEST)Kvikkjokk Arrenjarka A, Zweden (2119): windsnelheid & windstoten: 14.09.2020 18:00:00 - 20.09.2020 18:00:00 (CEST)Kvikkjokk Arrenjarka A, Zweden (2119): windrichting: 14.09.2020 18:00:00 - 20.09.2020 18:00:00 (CEST)Kvikkjokk Arrenjarka A, Zweden (2119): luchtdruk: 14.09.2020 18:00:00 - 20.09.2020 18:00:00 (CEST)Kvikkjokk Arrenjarka A, Zweden (2119): zicht: 14.09.2020 18:00:00 - 20.09.2020 18:00:00 (CEST)Kvikkjokk Arrenjarka A, Zweden (2119): neerslag: 14.09.2020 18:00:00 - 20.09.2020 18:00:00 (CEST)
Datum & Tijd tt [°C] td [°C] ff [km/u] ff [kn] fx [km/u] fx [kn] dd ppp [hPa] vv [km] rr [mm]
20.09.2020 18:00:00 8,4 1,3 15 8 38 20 WZW 1000,9 50 0,0
20.09.2020 17:00:00 8,7 1,6 10 5 34 18 WZW 1000,9 50 0,0
20.09.2020 16:00:00 9,0 0,2 18 10 41 22 W 1001,2 50 0,0
20.09.2020 15:00:00 9,6 0,5 11 6 40 22 W 1000,8 50 0,0
20.09.2020 14:00:00 9,7 0,0 14 8 51 27 WZW 1000,8 41 0,0
20.09.2020 13:00:00 10,8 0,2 19 10 48 26 W 1001,1 34 0,0
20.09.2020 12:00:00 10,3 0,7 18 10 44 24 WZW 1001,3 33 0,0
20.09.2020 11:00:00 9,3 1,8 21 11 50 27 WZW 1001,8 50 0,0
20.09.2020 10:00:00 7,0 5,2 4 2 24 13 W 1003,2 50 0,3
20.09.2020 09:00:00 7,9 3,0 5 3 20 11 W 1003,1 50 0,0
20.09.2020 08:00:00 6,2 3,5 2 1 19 10 W 1004,3 50 0,0
20.09.2020 07:00:00 7,4 2,5 7 4 19 11 ZZW 1005,5 50 0,0
20.09.2020 06:00:00 3,9 2,6 5 3 12 6 WNW 1007,4 50 0,0
20.09.2020 05:00:00 2,8 1,6 3 2 8 5 NW 1008,9 50 0,0
20.09.2020 04:00:00 3,4 1,9 6 3 10 6 NW 1010,8 50 0,0
20.09.2020 03:00:00 2,7 1,4 4 2 9 5 WNW 1012,0 50 0,0
20.09.2020 02:00:00 3,0 1,2 4 2 9 5 NW 1013,2 50 0,0
20.09.2020 01:00:00 3,8 1,5 3 1 9 5 NNW 1014,3 50 0,0
20.09.2020 00:00:00 4,7 1,6 2 1 6 3 ZO 1014,6 50 0,0
19.09.2020 23:00:00 6,7 0,7 2 1 20 11 W 1015,0 50 0,0
19.09.2020 22:00:00 7,2 1,1 7 4 - - ZW 1015,5 50 0,0
19.09.2020 21:00:00 6,9 0,3 10 5 21 12 W 1016,2 50 0,0
19.09.2020 20:00:00 6,6 -0,6 5 3 19 10 ZW 1016,8 50 0,0
19.09.2020 19:00:00 6,5 -0,5 8 5 29 16 W 1017,5 50 0,0
19.09.2020 18:00:00 7,2 -0,3 9 5 32 18 W 1017,8 50 0,0
19.09.2020 17:00:00 8,1 0,1 15 8 34 18 W 1017,6 50 0,0
19.09.2020 16:00:00 8,8 -0,3 13 7 30 16 WZW 1017,4 50 0,0
19.09.2020 15:00:00 9,9 0,2 7 4 38 21 W 1016,7 50 0,0
19.09.2020 14:00:00 9,9 0,0 15 8 35 19 WNW 1016,0 50 0,0
19.09.2020 13:00:00 10,0 -0,4 12 7 31 17 WNW 1016,5 39 0,0
19.09.2020 12:00:00 10,3 -0,8 9 5 36 20 Z 1015,9 50 0,0
19.09.2020 11:00:00 9,5 -1,3 8 4 28 15 Z 1015,1 50 0,0
19.09.2020 10:00:00 8,8 -1,6 8 5 29 16 W 1014,7 50 0,0
19.09.2020 09:00:00 8,1 -1,7 8 5 32 17 N 1014,3 50 0,0
19.09.2020 08:00:00 7,2 -1,0 5 3 31 17 WZW 1013,7 50 0,0
19.09.2020 07:00:00 6,3 -1,1 9 5 32 17 W 1013,1 50 0,0
19.09.2020 06:00:00 6,5 -0,5 8 4 44 24 WNW 1012,4 50 0,0
19.09.2020 05:00:00 6,9 -0,6 16 9 37 20 WNW 1011,1 50 0,0
19.09.2020 04:00:00 7,6 -0,3 21 11 46 25 W 1010,1 50 0,0
19.09.2020 03:00:00 7,0 -0,7 12 7 34 19 WNW 1010,0 50 0,0
19.09.2020 02:00:00 6,8 -0,9 13 7 46 25 WNW 1009,9 50 0,0
19.09.2020 01:00:00 7,3 0,0 22 12 53 29 WNW 1008,8 50 0,0
19.09.2020 00:00:00 6,7 -0,1 9 5 37 20 WNW 1009,0 50 0,0
18.09.2020 23:00:00 7,5 0,3 9 5 31 17 W 1008,4 50 0,0
18.09.2020 22:00:00 7,8 0,2 16 9 53 29 W 1008,2 50 0,0
18.09.2020 21:00:00 7,9 0,6 8 4 41 22 WNW 1007,7 50 0,0
18.09.2020 20:00:00 8,4 0,8 18 10 52 28 WZW 1007,0 50 0,0
18.09.2020 19:00:00 8,8 1,5 21 11 50 27 WZW 1007,1 50 0,0
18.09.2020 18:00:00 8,4 1,8 20 11 54 29 W 1007,0 50 0,0
18.09.2020 17:00:00 9,4 2,0 16 8 48 26 W 1006,9 50 0,0
18.09.2020 16:00:00 10,5 1,6 11 6 36 19 W 1006,8 50 0,0
18.09.2020 15:00:00 9,9 3,0 10 5 52 28 W 1006,5 50 0,0
18.09.2020 14:00:00 10,2 1,8 24 13 59 32 WZW 1005,9 50 0,0
18.09.2020 13:00:00 11,3 3,2 12 7 36 19 W 1005,9 45 0,0
18.09.2020 12:00:00 10,5 2,1 13 7 39 21 WNW 1005,8 39 0,0
18.09.2020 11:00:00 11,6 1,5 11 6 35 19 W 1004,2 50 0,0
18.09.2020 10:00:00 10,6 3,6 11 6 39 21 W 1003,4 50 0,0
18.09.2020 09:00:00 8,9 4,9 9 5 27 15 W 1003,0 50 0,0
18.09.2020 08:00:00 5,2 4,5 10 5 20 11 WZW 1003,1 40 0,3
18.09.2020 07:00:00 6,0 4,3 5 3 16 9 WZW 1003,2 50 0,1
18.09.2020 06:00:00 5,3 3,6 3 2 18 10 NW 1004,2 50 0,1
18.09.2020 05:00:00 5,7 2,9 6 3 18 10 ZZW 1005,7 49 0,1
18.09.2020 04:00:00 4,9 2,5 3 2 11 6 WZW 1007,3 50 0,0
18.09.2020 03:00:00 4,6 2,3 4 2 11 6 WZW 1009,3 50 0,0
18.09.2020 02:00:00 4,8 2,2 5 3 15 8 ZW 1011,4 50 0,0
18.09.2020 01:00:00 5,2 2,0 5 3 19 11 ZW 1013,1 50 0,0
18.09.2020 00:00:00 4,8 2,2 0 0 8 5 N 1014,5 50 0,0
17.09.2020 23:00:00 6,7 1,2 7 4 19 11 ZZW 1015,8 50 0,0
17.09.2020 22:00:00 4,8 2,1 4 2 13 7 WNW 1017,1 50 0,0
17.09.2020 21:00:00 4,4 2,3 5 3 10 6 NW 1018,0 50 0,0
17.09.2020 20:00:00 4,2 2,4 5 3 7 4 NNW 1018,8 50 0,0
17.09.2020 19:00:00 5,1 2,9 4 2 6 3 N 1019,7 50 0,0
17.09.2020 18:00:00 6,8 2,5 4 2 7 4 WZW 1020,4 50 0,0
17.09.2020 17:00:00 8,6 0,8 4 2 17 9 W 1020,9 50 0,0
17.09.2020 16:00:00 9,4 0,6 5 3 15 8 W 1021,7 50 0,0
17.09.2020 15:00:00 9,6 0,5 6 3 11 6 ZW 1022,1 50 0,0
17.09.2020 14:00:00 10,0 -0,5 4 2 18 10 Z 1022,5 50 0,0
17.09.2020 13:00:00 9,7 -1,1 9 5 18 10 ZW 1023,2 49 0,0
17.09.2020 12:00:00 8,7 -0,6 8 4 14 8 ZW 1023,9 50 0,0
17.09.2020 11:00:00 8,2 -0,3 8 4 16 9 W 1025,0 50 0,0
17.09.2020 10:00:00 8,0 -1,0 8 4 19 11 WNW 1024,9 50 0,0
17.09.2020 09:00:00 5,8 -1,1 4 2 14 8 ZZW 1025,7 50 0,0
17.09.2020 08:00:00 1,6 -1,3 4 2 11 6 NNW 1026,5 50 0,0
17.09.2020 07:00:00 -0,7 -2,4 0 0 15 8 N 1026,4 50 0,0
17.09.2020 06:00:00 -2,1 -4,1 3 2 14 8 W 1026,6 50 0,0
17.09.2020 05:00:00 2,6 -1,9 7 4 17 9 WZW 1026,0 50 0,0
17.09.2020 04:00:00 -0,6 -2,3 7 4 19 10 W 1026,2 50 0,0
17.09.2020 03:00:00 0,1 -2,6 11 6 21 11 WNW 1025,8 50 0,0
17.09.2020 02:00:00 1,2 -2,7 3 2 18 10 NW 1025,3 50 0,0
17.09.2020 01:00:00 4,3 -1,7 9 5 19 11 NW 1024,3 50 0,0
17.09.2020 00:00:00 4,0 -1,8 5 3 18 10 W 1024,1 50 0,0
16.09.2020 23:00:00 3,3 -1,5 10 5 21 11 WNW 1023,8 50 0,0
16.09.2020 22:00:00 2,8 -0,3 9 5 19 10 NW 1023,5 50 0,0
16.09.2020 21:00:00 5,9 -0,2 5 3 27 14 WNW 1022,1 50 0,0
16.09.2020 20:00:00 6,9 -0,1 8 5 20 11 W 1021,1 50 0,0
16.09.2020 19:00:00 6,8 0,7 7 4 21 12 W 1020,3 50 0,0
16.09.2020 18:00:00 9,7 -1,4 14 8 32 17 NNW 1019,0 50 0,0
16.09.2020 17:00:00 10,2 -0,6 11 6 24 13 NW 1018,0 50 0,0
16.09.2020 16:00:00 10,9 0,3 10 5 23 12 NNW 1017,1 50 0,0
16.09.2020 15:00:00 9,6 2,7 3 2 29 16 N 1016,9 50 0,0
16.09.2020 14:00:00 9,8 1,2 10 6 29 16 N 1016,3 49 0,0
16.09.2020 13:00:00 8,2 4,2 2 1 6 3 Z 1016,1 50 0,0
16.09.2020 12:00:00 6,8 5,1 3 2 7 4 WNW 1016,0 50 0,0
16.09.2020 11:00:00 5,8 4,6 2 1 5 3 O 1016,2 50 0,0
16.09.2020 10:00:00 - - - - - - - - - -
16.09.2020 09:00:00 - - - - - - - - - -
16.09.2020 08:00:00 3,1 3,0 3 2 7 4 NW 1016,1 42 0,1
16.09.2020 07:00:00 2,0 1,7 0 0 7 4 N 1016,2 50 0,0
16.09.2020 06:00:00 1,5 1,2 4 2 6 3 NNW 1016,4 50 0,0
16.09.2020 05:00:00 1,2 0,9 2 1 5 3 WNW 1016,3 47 0,1
16.09.2020 04:00:00 0,0 -0,3 4 2 - - NW 1016,7 50 0,0
16.09.2020 03:00:00 -0,2 -0,6 3 2 5 3 NW 1017,3 50 0,0
16.09.2020 02:00:00 -0,4 -0,7 5 3 7 4 NNW 1018,0 50 0,0
16.09.2020 01:00:00 -0,7 -1,0 3 2 8 4 NNW 1018,4 50 0,0
16.09.2020 00:00:00 -0,9 -1,3 4 2 8 4 NNW 1018,8 50 0,0
15.09.2020 23:00:00 -0,7 -1,4 5 3 10 5 NW 1019,3 50 0,0
15.09.2020 22:00:00 1,2 -0,3 2 1 13 7 W 1019,0 50 0,0
15.09.2020 21:00:00 6,8 1,3 8 4 17 9 W 1018,2 50 0,0
15.09.2020 20:00:00 7,8 1,4 8 5 16 9 WZW 1018,3 50 0,0
15.09.2020 19:00:00 6,1 2,0 5 3 13 7 WNW 1018,7 50 0,0
15.09.2020 18:00:00 9,3 2,2 5 3 17 9 NW 1018,4 50 0,0
15.09.2020 17:00:00 11,1 1,3 4 2 19 10 W 1018,1 50 0,0
15.09.2020 16:00:00 11,8 1,4 12 6 23 13 NW 1018,4 50 0,0
15.09.2020 15:00:00 12,8 1,8 7 4 22 12 WZW 1018,2 50 0,0
15.09.2020 14:00:00 12,5 1,5 9 5 19 10 ZW 1018,2 50 0,0
15.09.2020 13:00:00 11,7 1,0 8 5 27 14 ZW 1018,5 50 0,0
15.09.2020 12:00:00 11,9 0,6 13 7 30 16 ZW 1018,4 48 0,0
15.09.2020 11:00:00 11,5 1,4 9 5 22 12 WNW 1018,2 50 0,0
15.09.2020 10:00:00 10,3 2,2 10 5 33 18 ZW 1018,1 50 0,0
15.09.2020 09:00:00 9,3 2,2 4 2 18 10 W 1017,9 50 0,0
15.09.2020 08:00:00 7,7 3,0 6 4 16 9 WNW 1017,8 50 0,0
15.09.2020 07:00:00 2,3 1,9 3 2 9 5 NNW 1018,3 50 0,0
15.09.2020 06:00:00 2,5 1,6 5 3 10 5 NW 1017,7 50 0,0
15.09.2020 05:00:00 4,6 3,3 6 3 12 6 WNW 1017,0 50 0,0
15.09.2020 04:00:00 2,4 1,8 3 2 8 4 NNW 1016,7 50 0,0
15.09.2020 03:00:00 1,9 1,2 4 2 11 6 W 1016,3 50 0,0
15.09.2020 02:00:00 2,4 1,4 5 3 9 5 NW 1015,9 50 0,0
15.09.2020 01:00:00 2,5 1,3 5 3 9 5 NW 1015,1 50 0,0
15.09.2020 00:00:00 2,3 0,7 4 2 16 9 NNW 1014,9 50 0,0
14.09.2020 23:00:00 7,3 0,7 9 5 19 10 W 1013,4 50 0,0
14.09.2020 22:00:00 8,0 0,6 10 5 20 11 WZW 1012,4 50 0,0
14.09.2020 21:00:00 6,1 1,0 3 2 18 10 NNW 1012,0 50 0,0
14.09.2020 20:00:00 7,8 1,2 8 5 23 13 W 1010,9 50 0,0
14.09.2020 19:00:00 6,3 2,2 6 3 22 12 W 1010,6 50 0,0
14.09.2020 18:00:00 10,1 2,0 6 3 32 18 WNW 1009,3 50 0,0

tt = temperatuur
td = dauwpunt
ff = windsnelheid
fx = windstoten
dd = windrichting
ppp = luchtdruk
vv = zicht
rr = neerslag

Weerstations in de omgeving